GW2765 Weather Reports


Display with metric or nautical units.
time (UTC)temp
F
wind
direction
speed
MPH
gust
MPH
rain 1hr
in
rain 24hr
in
rain mn
in
humidity
%
barometer
mb
20260502222502 98 58 4.0 13.0 0.00 0.00 0.00 11 1008.2
20260502222002 98 118 3.0 13.0 0.00 0.00 0.00 11 1008.4
20260502221735 98 115 3.0 10.0 0.00 0.00 0.00 11 1008.5
20260502221002 98 75 3.0 10.0 0.00 0.00 0.00 11 1008.7
20260502220501 97 67 3.0 9.0 0.00 0.00 0.00 11 1008.7
20260502220001 97 84 4.0 11.0 0.00 0.00 0.00 11 1008.7
20260502215503 97 75 5.0 11.0 0.00 0.00 0.00 11 1008.7
20260502215001 97 149 4.0 9.0 0.00 0.00 0.00 11 1008.7
20260502214754 97 90 4.0 9.0 0.00 0.00 0.00 11 1008.7
20260502213728 98 104 5.0 11.0 0.00 0.00 0.00 11 1008.8
20260502213220 97 86 6.0 12.0 0.00 0.00 0.00 10 1009.0
20260502212447 98 89 5.0 12.0 0.00 0.00 0.00 10 1009.0
20260502211940 98 70 3.0 10.0 0.00 0.00 0.00 11 1009.0
20260502211433 98 87 4.0 10.0 0.00 0.00 0.00 11 1009.0
20260502210930 98 113 4.0 10.0 0.00 0.00 0.00 10 1009.1
20260502210435 98 199 3.0 9.0 0.00 0.00 0.00 11 1009.1
20260502205433 98 94 3.0 9.0 0.00 0.00 0.00 11 1009.2
20260502205159 98 58 3.0 9.0 0.00 0.00 0.00 12 1009.5
20260502204431 98 171 4.0 11.0 0.00 0.00 0.00 12 1009.5
20260502203930 97 34 4.0 11.0 0.00 0.00 0.00 11 1009.7
20260502203430 97 77 3.0 9.0 0.00 0.00 0.00 11 1009.7
20260502202930 98 84 4.0 10.0 0.00 0.00 0.00 10 1009.8
20260502202430 97 153 5.0 11.0 0.00 0.00 0.00 10 1009.9
20260502201929 97 82 4.0 11.0 0.00 0.00 0.00 10 1010.0
20260502201431 97 138 4.0 8.0 0.00 0.00 0.00 10 1010.0
20260502200931 98 82 3.0 8.0 0.00 0.00 0.00 10 1010.2
20260502200704 98 126 2.0 7.0 0.00 0.00 0.00 10 1010.3
20260502195930 97 127 3.0 10.0 0.00 0.00 0.00 10 1010.4
20260502195701 96 132 3.0 10.0 0.00 0.00 0.00 10 1010.3
20260502194930 97 105 2.0 7.0 0.00 0.00 0.00 10 1010.6
20260502194430 97 52 2.0 7.0 0.00 0.00 0.00 11 1010.6
20260502193932 96 79 3.0 10.0 0.00 0.00 0.00 12 1010.5
20260502193435 97 241 3.0 10.0 0.00 0.00 0.00 9 1010.6
20260502192934 97 243 2.0 6.0 0.00 0.00 0.00 9 1010.7
20260502191931 98 180 2.0 8.0 0.00 0.00 0.00 9 1010.7
20260502191429 98 98 2.0 7.0 0.00 0.00 0.00 10 1010.8
20260502191157 97 64 2.0 7.0 0.00 0.00 0.00 10 1011.0
20260502190430 96 167 2.0 7.0 0.00 0.00 0.00 9 1011.1
20260502185929 96 118 2.0 6.0 0.00 0.00 0.00 10 1011.1
20260502185429 96 88 2.0 6.0 0.00 0.00 0.00 10 1011.2
20260502184929 96 116 2.0 6.0 0.00 0.00 0.00 10 1011.3
20260502184430 96 156 2.0 5.0 0.00 0.00 0.00 10 1011.3
20260502183931 96 30 1.0 5.0 0.00 0.00 0.00 10 1011.3
20260502183428 96 65 1.0 6.0 0.00 0.00 0.00 12 1011.4
20260502182929 96 210 2.0 6.0 0.00 0.00 0.00 10 1011.4
20260502182428 96 310 2.0 5.0 0.00 0.00 0.00 11 1011.5
20260502181929 96 208 1.0 5.0 0.00 0.00 0.00 10 1011.6
20260502181423 96 235 1.0 4.0 0.00 0.00 0.00 10 1011.7
20260502180918 95 67 2.0 6.0 0.00 0.00 0.00 9 1011.8
20260502180417 95 124 2.0 6.0 0.00 0.00 0.00 10 1011.8
20260502163905 87 60 1.0 3.0 0.00 0.00 0.00 27 1012.3
20260502163406 87 18 0.0 3.0 0.00 0.00 0.00 27 1012.4
20260502162906 88 257 0.0 2.0 0.00 0.00 0.00 28 1012.6
20260502162406 88 287 0.0 1.0 0.00 0.00 0.00 28 1012.5
20260502161906 87 352 0.0 1.0 0.00 0.00 0.00 30 1012.5
20260502161404 86 352 0.0 1.0 0.00 0.00 0.00 29 1012.5
20260502160904 86 153 0.0 1.0 0.00 0.00 0.00 31 1012.5
20260502160401 86 65 0.0 1.0 0.00 0.00 0.00 32 1012.6
20260502151854 80 278 0.0 1.0 0.00 0.00 0.00 39 1012.5
20260502151355 79 276 0.0 1.0 0.00 0.00 0.00 41 1012.4
20260502150854 78 274 0.0 1.0 0.00 0.00 0.00 44 1012.5
20260502150354 76 274 0.0 1.0 0.00 0.00 0.00 45 1012.4
20260502130615 66 165 0.0 0.0 0.00 0.00 0.00 58 1011.4
20260502123340 67 166 0.0 0.0 0.00 0.00 0.00 59 1011.1
20260502122840 67 165 0.0 0.0 0.00 0.00 0.00 59 1011.1
20260502122340 67 166 0.0 0.0 0.00 0.00 0.00 59 1011.1
20260502121841 67 165 0.0 0.0 0.00 0.00 0.00 57 1011.0
20260502121607 68 165 0.0 0.0 0.00 0.00 0.00 57 1011.0
20260502120342 68 166 0.0 0.0 0.00 0.00 0.00 56 1011.0
20260502115840 68 165 0.0 0.0 0.00 0.00 0.00 56 1010.9
20260502115342 68 165 0.0 0.0 0.00 0.00 0.00 57 1011.0
20260502114835 68 166 0.0 0.0 0.00 0.00 0.00 57 1011.0
20260502113837 68 164 0.0 0.0 0.00 0.00 0.00 57 1010.8
20260502113335 68 164 0.0 0.0 0.00 0.00 0.00 57 1010.9
20260502112836 68 164 0.0 0.0 0.00 0.00 0.00 57 1010.8
20260502112335 68 163 0.0 0.0 0.00 0.00 0.00 56 1010.9
20260502111835 69 164 0.0 0.0 0.00 0.00 0.00 56 1010.9
20260502111335 69 164 0.0 0.0 0.00 0.00 0.00 56 1010.9
20260502110837 69 164 0.0 0.0 0.00 0.00 0.00 56 1010.9
20260502110329 69 164 0.0 0.0 0.00 0.00 0.00 56 1010.9
20260502105829 69 164 0.0 0.0 0.00 0.00 0.00 56 1010.9
20260502105329 68 164 0.0 0.0 0.00 0.00 0.00 56 1010.9
20260502104830 68 164 0.0 1.0 0.00 0.00 0.00 57 1010.9
20260502104329 68 165 0.0 1.0 0.00 0.00 0.00 57 1010.9
20260502103830 68 121 0.0 0.0 0.00 0.00 0.00 57 1010.8
20260502103558 69 121 0.0 0.0 0.00 0.00 0.00 56 1010.7
20260502102829 69 122 0.0 1.0 0.00 0.00 0.00 55 1010.7
20260502102331 69 122 0.0 1.0 0.00 0.00 0.00 55 1010.7
20260502101829 69 118 0.0 1.0 0.00 0.00 0.00 54 1010.7
20260502101331 69 205 0.0 0.0 0.00 0.00 0.00 55 1010.8
20260502100830 69 205 0.0 1.0 0.00 0.00 0.00 55 1010.8
20260502100331 70 205 0.0 1.0 0.00 0.00 0.00 54 1010.7
20260502091330 71 180 0.0 2.0 0.00 0.00 0.00 53 1010.8
20260502090830 71 157 0.0 0.0 0.00 0.00 0.00 52 1010.7
20260502090330 71 157 0.0 0.0 0.00 0.00 0.00 51 1010.8
20260502071329 76 333 0.0 1.0 0.00 0.00 0.00 47 1010.8
20260502070829 76 333 0.0 2.0 0.00 0.00 0.00 47 1010.7
20260502070330 76 302 0.0 2.0 0.00 0.00 0.00 47 1010.6
20260502065829 76 356 1.0 4.0 0.00 0.00 0.00 47 1010.8
20260502065330 76 354 0.0 4.0 0.00 0.00 0.00 46 1010.7
20260502064829 77 354 0.0 1.0 0.00 0.00 0.00 45 1010.7
20260502064330 77 354 0.0 1.0 0.00 0.00 0.00 44 1010.7
20260502063829 77 358 0.0 1.0 0.00 0.00 0.00 43 1010.8
20260502063330 77 244 0.0 1.0 0.00 0.00 0.00 42 1010.7
20260502062830 77 208 0.0 2.0 0.00 0.00 0.00 40 1010.7
20260502062329 77 167 1.0 3.0 0.00 0.00 0.00 39 1010.6
20260502061829 78 165 1.0 3.0 0.00 0.00 0.00 39 1010.5
20260502061329 78 288 0.0 2.0 0.00 0.00 0.00 38 1010.5
20260502060329 78 302 0.0 1.0 0.00 0.00 0.00 38 1010.4
20260502055832 77 146 0.0 0.0 0.00 0.00 0.00 38 1010.5
20260502055553 78 146 0.0 0.0 0.00 0.00 0.00 38 1010.4
20260502054818 78 146 0.0 1.0 0.00 0.00 0.00 37 1010.5
20260502054311 78 146 0.0 1.0 0.00 0.00 0.00 36 1010.5
20260502053806 79 146 0.0 0.0 0.00 0.00 0.00 35 1010.6
20260502053309 80 149 0.0 0.0 0.00 0.00 0.00 34 1010.5
20260502052805 80 148 0.0 1.0 0.00 0.00 0.00 34 1010.5
20260502052306 80 149 0.0 1.0 0.00 0.00 0.00 34 1010.4
20260502051801 80 159 0.0 1.0 0.00 0.00 0.00 34 1010.4
20260502051534 81 200 0.0 1.0 0.00 0.00 0.00 33 1010.4
20260502050803 81 229 0.0 1.0 0.00 0.00 0.00 33 1010.4
20260502045801 82 328 0.0 1.0 0.00 0.00 0.00 31 1010.3
20260502045306 82 114 0.0 0.0 0.00 0.00 0.00 31 1010.2
20260502044802 83 114 0.0 2.0 0.00 0.00 0.00 30 1010.2
20260502044303 83 114 0.0 2.0 0.00 0.00 0.00 29 1010.1
20260502043801 83 108 0.0 1.0 0.00 0.00 0.00 28 1010.0
20260502043302 84 72 0.0 1.0 0.00 0.00 0.00 27 1009.8
20260502042801 84 72 0.0 0.0 0.00 0.00 0.00 27 1009.7
20260502042300 84 72 0.0 1.0 0.00 0.00 0.00 26 1009.6
20260502041802 84 72 0.0 1.0 0.00 0.00 0.00 26 1009.6
20260502041302 84 72 0.0 1.0 0.00 0.00 0.00 26 1009.5
20260502040800 84 72 0.0 1.0 0.00 0.00 0.00 26 1009.5
20260502040253 85 318 0.0 0.0 0.00 0.00 0.00 24 1009.3
20260502035749 85 318 0.0 1.0 0.00 0.00 0.00 23 1009.2
20260502035515 86 318 1.0 3.0 0.00 0.00 0.00 23 1009.1
20260502034737 86 336 1.0 4.0 0.00 0.00 0.00 23 1009.1
20260502034456 86 53 1.0 4.0 0.00 0.00 0.00 24 1009.0
20260502033732 86 56 1.0 4.0 0.00 0.00 0.00 27 1008.9
20260502033231 86 44 0.0 4.0 0.00 0.00 0.00 27 1008.9
20260502033001 87 38 0.0 5.0 0.00 0.00 0.00 28 1008.6
20260502032230 87 136 0.0 5.0 0.00 0.00 0.00 27 1008.6
20260502031730 87 122 0.0 2.0 0.00 0.00 0.00 27 1008.6
20260502031457 87 243 1.0 5.0 0.00 0.00 0.00 27 1008.4
20260502030730 87 344 1.0 7.0 0.00 0.00 0.00 27 1008.2
20260502030230 87 355 2.0 7.0 0.00 0.00 0.00 27 1008.0
20260502025731 87 1 2.0 6.0 0.00 0.00 0.00 27 1008.0
20260502025232 88 6 1.0 5.0 0.00 0.00 0.00 26 1007.9
20260502024730 88 336 1.0 5.0 0.00 0.00 0.00 26 1007.9
20260502024230 88 326 2.0 4.0 0.00 0.00 0.00 27 1007.9
20260502023731 89 357 2.0 5.0 0.00 0.00 0.00 26 1007.7
20260502023230 89 23 2.0 5.0 0.00 0.00 0.00 26 1007.7
20260502022732 90 358 2.0 6.0 0.00 0.00 0.00 26 1007.7
20260502022232 90 2 2.0 6.0 0.00 0.00 0.00 24 1007.6
20260502021732 91 305 2.0 6.0 0.00 0.00 0.00 24 1007.6
20260502021230 91 333 3.0 8.0 0.00 0.00 0.00 24 1007.5
20260502020731 91 335 3.0 8.0 0.00 0.00 0.00 24 1007.6
20260502020500 92 13 2.0 6.0 0.00 0.00 0.00 23 1007.5
20260502015731 93 330 2.0 11.0 0.00 0.00 0.00 22 1007.5
20260502015231 93 22 3.0 11.0 0.00 0.00 0.00 22 1007.5
20260502014732 94 14 2.0 7.0 0.00 0.00 0.00 22 1007.4
20260502014231 94 347 1.0 6.0 0.00 0.00 0.00 20 1007.4
20260502013730 94 356 1.0 6.0 0.00 0.00 0.00 20 1007.4
20260502013230 95 19 1.0 6.0 0.00 0.00 0.00 20 1007.4
20260502012729 95 352 1.0 3.0 0.00 0.00 0.00 18 1007.3
20260502012230 95 82 1.0 3.0 0.00 0.00 0.00 17 1007.3
20260502011730 95 74 1.0 3.0 0.00 0.00 0.00 17 1007.2
20260502011231 95 83 1.0 2.0 0.00 0.00 0.00 17 1007.2
20260502010958 95 70 0.0 2.0 0.00 0.00 0.00 17 1007.2
20260502010230 95 108 0.0 3.0 0.00 0.00 0.00 17 1007.2
20260502005730 94 79 0.0 3.0 0.00 0.00 0.00 17 1007.2
20260502005230 94 92 1.0 3.0 0.00 0.00 0.00 17 1007.2
20260502004729 94 58 1.0 3.0 0.00 0.00 0.00 17 1007.2
20260502004230 94 139 1.0 3.0 0.00 0.00 0.00 17 1007.1
20260502003732 95 110 1.0 4.0 0.00 0.00 0.00 17 1007.2
20260502003229 95 143 1.0 5.0 0.00 0.00 0.00 17 1007.1
20260502002953 95 171 2.0 5.0 0.00 0.00 0.00 17 1007.1
20260502002229 95 169 2.0 5.0 0.00 0.00 0.00 16 1007.1
20260502001729 95 147 2.0 4.0 0.00 0.00 0.00 16 1007.1
20260502001229 96 23 2.0 6.0 0.00 0.00 0.00 16 1007.1
20260502000229 97 132 3.0 8.0 0.00 0.00 0.00 15 1007.1
20260502000003 97 174 3.0 8.0 0.00 0.00 0.00 15 1007.2
20260501234728 97 143 3.0 8.0 0.00 0.00 0.00 16 1007.3
20260501234457 97 111 2.0 10.0 0.00 0.00 0.00 16 1007.2
20260501233952 98 128 2.0 10.0 0.00 0.00 0.00 15 1007.3
20260501233227 98 125 2.0 5.0 0.00 0.00 0.00 16 1007.4
20260501232951 98 51 1.0 5.0 0.00 0.00 0.00 16 1007.4
20260501232223 98 76 1.0 4.0 0.00 0.00 0.00 16 1007.4
20260501231724 97 304 1.0 5.0 0.00 0.00 0.00 16 1007.4
20260501231225 97 64 2.0 5.0 0.00 0.00 0.00 15 1007.6
20260501230724 97 50 2.0 6.0 0.00 0.00 0.00 16 1007.6
20260501230446 97 106 3.0 6.0 0.00 0.00 0.00 16 1007.7
20260501225724 98 51 2.0 8.0 0.00 0.00 0.00 17 1007.7
20260501225222 97 136 2.0 8.0 0.00 0.00 0.00 16 1007.8
20260501224722 97 299 2.0 6.0 0.00 0.00 0.00 16 1007.8
20260501224455 97 62 2.0 7.0 0.00 0.00 0.00 16 1007.8
20260501223724 97 39 2.0 7.0 0.00 0.00 0.00 17 1007.8
20260501223449 98 41 3.0 7.0 0.00 0.00 0.00 18 1007.9
20260501222720 97 83 3.0 7.0 0.00 0.00 0.00 17 1008.0